Providence, RI

11:00 AM EST on December 16, 2017 (GMT -0500)
Green State

Weather History for KPVD - July, 2013

Change the Weather History Date:

Saturday, July 20, 2013

  Actual Average Record
Temperature  
Mean Temperature 85 °F 74 °F  
Max Temperature 95 °F 83 °F 101 °F (1991)
Min Temperature 75 °F 65 °F 54 °F (1939)
Degree Days  
Heating Degree Days 0 0  
Month to date heating degree days 0 0  
Since 1 June heating degree days 24 43  
Since 1 July heating degree days 0 0  
Cooling Degree Days 20 9  
Month to date cooling degree days 318 168  
Year to date cooling degree days 526 326  
Since 1 June cooling degree days 482 300  
Growing Degree Days 35 (Base 50)    
Moisture  
Dew Point 73 °F    
Average Humidity 68    
Maximum Humidity 87    
Minimum Humidity 49    
Precipitation  
Precipitation 0.11 in 0.10 in 1.51 in (1982)
Month to date precipitation 0.91 2.00  
Year to date precipitation 25.59 25.71  
Snow  
Snow 0.00 in 0.00 in 0.00 in (2002)
Month to date snowfall 0.0 0.0  
Since 1 June snowfall 0.0 0.0  
Since 1 July snowfall 0.0 0.0  
Snow Depth 0.00 in    
Sea Level Pressure  
Sea Level Pressure 29.74 in    
Wind  
Wind Speed 9 mph (SW)    
Max Wind Speed 23 mph    
Max Gust Speed 30 mph    
Visibility 8 miles    
Events Rain , Thunderstorm    
T = Trace of Precipitation, MM = Missing Value Source: NWS Daily Summary

Daily Weather History Graph

Daily Weather History Graph

Search for Another Location

Airport or City:

Trip Planner

Search our weather history database for the weather conditions in past years. The results will help you decide how hot, cold, wet, or windy it might be!

Date:

Astronomy

Jul. 20, 2013 Rise Set
Actual Time 5:28 AM EDT 8:14 PM EDT
Civil Twilight 4:56 AM EDT 8:47 PM EDT
Nautical Twilight 4:15 AM EDT 9:28 PM EDT
Astronomical Twilight 3:27 AM EDT 10:15 PM EDT
Moon 6:15 PM EDT (7/20) 3:05 AM EDT (7/20)
Length of Visible Light 15h 51m
Length of Day
14h 46m
Waxing Gibbous, 93% of the Moon is Illuminated
Jul 20
Waxing Gibbous
Jul 22
Full
Jul 29
Last Quarter
Aug 6
New
Aug 14
First Quarter

Hourly Weather History & Observations

Time (EDT) Temp. Heat Index Dew Point Humidity Pressure Visibility Wind Dir Wind Speed Gust Speed Precip Events Conditions
12:51 AM 81.0 °F 85.8 °F 73.0 °F 77% 29.78 in 7.0 mi SW 6.9 mph - N/A   Clear
1:51 AM 81.0 °F 86.2 °F 73.9 °F 79% 29.78 in 7.0 mi SW 8.1 mph - N/A   Clear
2:51 AM 81.0 °F 86.2 °F 73.9 °F 79% 29.76 in 7.0 mi WSW 9.2 mph - N/A   Clear
3:51 AM 81.0 °F 86.2 °F 73.9 °F 79% 29.75 in 7.0 mi WSW 6.9 mph - N/A   Clear
4:51 AM 80.1 °F 84.5 °F 73.9 °F 81% 29.75 in 7.0 mi WSW 8.1 mph - N/A   Clear
5:51 AM 79.0 °F - 73.9 °F 84% 29.75 in 5.0 mi SSW 4.6 mph - N/A   Haze
6:51 AM 80.1 °F 85.1 °F 75.0 °F 85% 29.75 in 4.0 mi South 5.8 mph - N/A   Haze
7:51 AM 84.0 °F 91.9 °F 75.0 °F 74% 29.77 in 5.0 mi West 5.8 mph - N/A   Haze
8:51 AM 84.9 °F 92.1 °F 73.9 °F 69% 29.76 in 6.0 mi SW 8.1 mph - N/A   Haze
9:51 AM 87.1 °F 95.4 °F 73.9 °F 65% 29.75 in 6.0 mi SSW 8.1 mph 18.4 mph N/A   Haze
10:51 AM 91.0 °F 99.3 °F 73.0 °F 55% 29.74 in 7.0 mi SW 9.2 mph - N/A   Mostly Cloudy
11:51 AM 91.0 °F 99.3 °F 73.0 °F 55% 29.73 in 8.0 mi SSW 12.7 mph - N/A   Mostly Cloudy
12:51 PM 91.9 °F 99.5 °F 72.0 °F 52% 29.71 in 9.0 mi SW 16.1 mph 21.9 mph N/A   Scattered Clouds
1:51 PM 93.9 °F 100.8 °F 71.1 °F 47% 29.69 in 10.0 mi SSW 17.3 mph 25.3 mph N/A   Scattered Clouds
2:51 PM 93.9 °F 100.8 °F 71.1 °F 47% 29.68 in 9.0 mi WSW 15.0 mph 25.3 mph N/A   Scattered Clouds
3:30 PM 93.2 °F 100.5 °F 71.6 °F 49% 29.68 in 8.0 mi SW 17.3 mph 23.0 mph N/A Thunderstorm Thunderstorm
3:51 PM 93.0 °F 100.7 °F 72.0 °F 50% 29.69 in 9.0 mi SSW 18.4 mph 29.9 mph N/A Thunderstorm Thunderstorm
4:14 PM 84.2 °F 88.4 °F 69.8 °F 62% 29.70 in 10.0 mi WNW 10.4 mph - N/A Thunderstorm Thunderstorm
4:41 PM 78.8 °F - 71.6 °F 78% 29.70 in 9.0 mi WSW 12.7 mph - 0.11 in Rain , Thunderstorm Light Thunderstorms and Rain
4:51 PM 79.0 °F - 72.0 °F 79% 29.71 in 10.0 mi WSW 10.4 mph - 0.11 in Thunderstorm Thunderstorm
5:06 PM 78.8 °F - 73.4 °F 83% 29.72 in 10.0 mi West 6.9 mph - N/A   Mostly Cloudy
5:51 PM 81.0 °F 86.7 °F 75.0 °F 82% 29.72 in 10.0 mi SW 4.6 mph - N/A   Mostly Cloudy
6:51 PM 84.0 °F 91.9 °F 75.0 °F 74% 29.72 in 9.0 mi WSW 5.8 mph - N/A   Scattered Clouds
7:51 PM 82.0 °F 89.4 °F 75.9 °F 82% 29.74 in 6.0 mi SW 4.6 mph - N/A   Haze
8:51 PM 81.0 °F 87.3 °F 75.9 °F 85% 29.76 in 7.0 mi WSW 6.9 mph - N/A Thunderstorm Thunderstorm
9:51 PM 77.0 °F - 69.1 °F 76% 29.80 in 10.0 mi WNW 4.6 mph - 0.00 in   Scattered Clouds
10:51 PM 77.0 °F - 71.1 °F 82% 29.80 in 9.0 mi West 6.9 mph - N/A   Scattered Clouds
11:51 PM 75.9 °F - 71.1 °F 85% 29.82 in 10.0 mi West 5.8 mph - N/A   Scattered Clouds